Location: Arrakis Observatory
(44.1122°N, 95.7153°W)
Time: 13:31:33
(UTC-05:00)

Amateur Radio Satellites - All Passes

Search period start: 23 October 2014 13:01
Search period end: 24 October 2014 13:01
Location: Arrakis Observatory, 44.1122°N, 95.7153°W

Satellite Date Start Highest point End Downlink Frequencies (MHz)
Time Altitude Azimuth
Oscar 10/S400 23 Oct 13:09:11 13:25:07 24° 149° (SSE) 13:40:12 145.825 - 145.975 CW/USB, Beacon 145.810 USB
KITSAT 1 23 Oct 13:17:52 13:25:52 71° 118° (ESE) 13:33:55 435.175 FM
FUNcube-1 23 Oct 13:21:42 13:23:23 12° 300° (WNW) 13:25:05 145.950 - 145.970 MHz USB
Oscar 16 23 Oct 13:23:09 13:27:57 40° 68° (ENE) 13:32:45 437.025 USB, Beacon 2401.1428
AO-Echo 23 Oct 13:31:56 13:35:52 25° 64° (ENE) 13:39:54 ?
Uribyol 2 23 Oct 13:40:28 13:44:47 27° 64° (ENE) 13:49:07 436.500 FM
ITAMSAT 1 23 Oct 13:46:00 13:50:23 28° 64° (ENE) 13:54:47 435.822 SSB
Gurwin Techsat 1B 23 Oct 13:57:26 14:01:10 20° 61° (ENE) 14:04:56 435.225 FM
TMSAT-1 23 Oct 14:09:49 14:13:27 19° 60° (ENE) 14:17:07 436.925 FM
Sapphire 23 Oct 14:11:58 14:17:25 79° 241° (WSW) 14:22:50 437.095 MHz 1200 baud AX-25 AFSK
Oscar 19 23 Oct 14:16:29 14:21:38 71° 257° (WSW) 14:26:47 437.125 CW, 437.150 USB
SO-50 23 Oct 14:20:35 14:25:06 89° 304° (NW) 14:29:46 436.795 FM
AO-27 23 Oct 14:30:14 14:35:24 69° 73° (ENE) 14:40:36 436.795 MHz FM
ISS 23 Oct 14:33:57 14:37:17 84° 146° (SE) 14:40:38 145.800 FM
PCSat 23 Oct 14:34:53 14:40:05 48° 246° (WSW) 14:45:16 145.825 MHz
JAS-1B 23 Oct 14:44:11 14:50:05 55° 259° (W) 14:55:40 435.800 - 435.900 CW/SSB
Oscar 16 23 Oct 15:03:04 15:07:25 27° 265° (W) 15:11:46 437.025 USB, Beacon 2401.1428
AO-Echo 23 Oct 15:09:45 15:14:22 43° 262° (W) 15:19:10 ?
KITSAT 1 23 Oct 15:14:43 15:21:56 34° 320° (NW) 15:29:11 435.175 FM
Uosat F 23 Oct 15:17:49 15:19:50 12° 56° (ENE) 15:21:50 435.120 FM
Uribyol 2 23 Oct 15:19:05 15:24:02 43° 261° (W) 15:29:01 436.500 FM
ITAMSAT 1 23 Oct 15:24:48 15:29:41 41° 262° (W) 15:34:38 435.822 SSB
AO-7 23 Oct 15:27:25 15:34:48 38° 58° (ENE) 15:42:13 29.400 - 29.500 MHz
Gurwin Techsat 1B 23 Oct 15:35:24 15:40:39 62° 259° (WSW) 15:45:57 435.225 FM
TMSAT-1 23 Oct 15:47:36 15:52:52 65° 258° (WSW) 15:58:10 436.925 FM
Saudisat 1A 23 Oct 15:52:11 15:55:24 19° 38° (NE) 15:58:36 436.775 MHz
UOSAT-12 23 Oct 15:52:20 15:56:57 74° 122° (ESE) 16:01:40 437.025 FM, 437.400 FM
Sapphire 23 Oct 15:58:32 15:59:54 11° 259° (WSW) 16:01:17 437.095 MHz 1200 baud AX-25 AFSK
SO-50 23 Oct 16:03:20 16:06:21 17° 325° (NW) 16:09:26 436.795 FM
ISS 23 Oct 16:11:22 16:14:17 27° 346° (NNW) 16:17:12 145.800 FM
AO-27 23 Oct 16:12:16 16:15:24 16° 270° (W) 16:18:34 436.795 MHz FM
JAS-2 23 Oct 16:17:02 16:20:32 16° 51° (NE) 16:24:14 435.800 - 435.900 CW/SSB, 435.910 FM
Uosat F 23 Oct 16:52:47 16:57:49 84° 75° (ENE) 17:02:53 435.120 FM
KITSAT 1 23 Oct 17:15:37 17:20:15 16° 349° (NNW) 17:24:53 435.175 FM
AO-7 23 Oct 17:19:15 17:27:19 55° 258° (WSW) 17:35:26 29.400 - 29.500 MHz
Hamsat 23 Oct 17:24:58 17:28:13 22° 66° (ENE) 17:31:28 145.90 MHz
Saudisat 1A 23 Oct 17:31:01 17:35:26 70° 238° (WSW) 17:39:49 436.775 MHz
UOSAT-12 23 Oct 17:34:07 17:37:37 20° 322° (NW) 17:41:10 437.025 FM, 437.400 FM
ISS 23 Oct 17:48:57 17:51:42 23° 7° (N) 17:54:26 145.800 FM
JAS-2 23 Oct 17:58:27 18:04:20 79° 73° (ENE) 18:11:06 435.800 - 435.900 CW/SSB, 435.910 FM
OPAL 23 Oct 18:28:04 18:32:55 50° 102° (ESE) 18:37:42 ?
Uosat F 23 Oct 18:35:23 18:37:15 12° 272° (W) 18:39:07 435.120 FM
Hamsat 23 Oct 19:00:07 19:03:59 34° 263° (W) 19:07:50 145.90 MHz
KITSAT 1 23 Oct 19:14:13 19:19:31 18° 20° (NNE) 19:24:48 435.175 FM
ISS 23 Oct 19:25:36 19:28:54 55° 26° (NNE) 19:32:11 145.800 FM
SO-67 23 Oct 19:34:38 19:38:03 77° 77° (ENE) 19:41:31 435.3500 MHz FM
HO-68 23 Oct 19:35:56 19:40:37 19° 52° (NE) 19:45:19 435.675 MHz FM
JAS-2 23 Oct 19:46:39 19:50:24 17° 275° (W) 19:54:25 435.800 - 435.900 CW/SSB, 435.910 FM
OPAL 23 Oct 20:07:41 20:11:28 22° 300° (WNW) 20:15:14 ?
STRAND 1 23 Oct 20:10:10 20:15:19 63° 102° (ESE) 20:20:24 ?
ISS 23 Oct 21:02:41 21:05:24 23° 224° (SW) 21:08:05 145.800 FM
KITSAT 1 23 Oct 21:09:31 21:17:16 46° 46° (NE) 21:24:58 435.175 FM
SO-50 23 Oct 21:10:49 21:14:37 22° 39° (NE) 21:18:25 436.795 FM
Oscar 11 23 Oct 21:11:24 21:14:28 19° 64° (ENE) 21:17:33 145.825 FM, Beacon 2401.500 USB
RS-15 23 Oct 21:17:48 21:24:33 19° 98° (E) 21:31:14 29.354 - 29.394 USB, Beacon 29.352 USB
HO-68 23 Oct 21:20:09 21:27:19 84° 72° (ENE) 21:34:32 435.675 MHz FM
AO-40 23 Oct 21:49:41 22:13:15 11° 107° (ESE) 22:33:33 Beacon 2401.320
STRAND 1 23 Oct 21:50:28 21:54:01 19° 299° (WNW) 21:57:33 ?
ZACube-1 23 Oct 21:56:25 22:00:12 26° 67° (ENE) 22:03:56 437.345 MHz
UKube-1 23 Oct 22:03:15 22:07:35 75° 74° (ENE) 22:11:58 145.840 MHz, 145.915 MHz
FUNcube-1 23 Oct 22:40:31 22:45:05 70° 75° (ENE) 22:49:36 145.950 - 145.970 MHz USB
UOSAT-12 23 Oct 22:41:21 22:44:38 18° 36° (NE) 22:47:54 437.025 FM, 437.400 FM
Oscar 11 23 Oct 22:46:13 22:50:21 43° 261° (W) 22:54:30 145.825 FM, Beacon 2401.500 USB
SO-50 23 Oct 22:50:48 22:55:37 68° 238° (WSW) 23:00:28 436.795 FM
KITSAT 1 23 Oct 23:05:05 23:12:44 48° 248° (WSW) 23:20:20 435.175 FM
HO-68 23 Oct 23:11:03 23:15:50 19° 270° (W) 23:20:40 435.675 MHz FM
RS-15 23 Oct 23:24:00 23:34:58 78° 120° (ESE) 23:45:53 29.354 - 29.394 USB, Beacon 29.352 USB
ZACube-1 23 Oct 23:32:14 23:36:26 35° 263° (W) 23:40:37 437.345 MHz
UKube-1 23 Oct 23:43:17 23:44:18 11° 271° (W) 23:45:19 145.840 MHz, 145.915 MHz
FUNcube-1 24 Oct 00:19:53 00:21:54 13° 271° (W) 00:23:54 145.950 - 145.970 MHz USB
UOSAT-12 24 Oct 00:20:41 00:25:26 87° 236° (SW) 00:30:05 437.025 FM, 437.400 FM
MaSat-1 24 Oct 00:28:59 00:33:00 48° 113° (ESE) 00:36:40 437.345 MHz
Oscar 16 24 Oct 01:35:23 01:37:16 12° 88° (E) 01:39:09 437.025 USB, Beacon 2401.1428
RS-15 24 Oct 01:38:23 01:48:24 39° 327° (NNW) 01:58:33 29.354 - 29.394 USB, Beacon 29.352 USB
UOSAT-12 24 Oct 02:03:38 02:04:48 11° 254° (WSW) 02:05:58 437.025 FM, 437.400 FM
MaSat-1 24 Oct 02:06:09 02:08:50 17° 308° (NW) 02:11:22 437.345 MHz
Oscar 10/S400 24 Oct 02:09:32 03:00:41 17° 244° (WSW) 04:43:35 145.825 - 145.975 CW/USB, Beacon 145.810 USB
JAS-1B 24 Oct 02:24:29 02:30:34 36° 98° (E) 02:37:37 435.800 - 435.900 CW/SSB
Oscar 19 24 Oct 02:26:47 02:31:30 36° 97° (E) 02:36:11 437.125 CW, 437.150 USB
AO-27 24 Oct 02:42:34 02:46:34 22° 93° (E) 02:50:32 436.795 MHz FM
Oscar 16 24 Oct 03:12:09 03:17:18 86° 285° (WNW) 03:22:25 437.025 USB, Beacon 2401.1428
AO-Echo 24 Oct 03:14:51 03:20:05 56° 100° (E) 03:25:18 ?
Uribyol 2 24 Oct 03:29:59 03:35:09 61° 101° (ESE) 03:40:17 436.500 FM
ITAMSAT 1 24 Oct 03:35:44 03:40:57 64° 102° (ESE) 03:46:07 435.822 SSB
PCSat 24 Oct 03:36:45 03:40:12 17° 105° (ESE) 03:43:40 145.825 MHz
Gurwin Techsat 1B 24 Oct 03:50:06 03:55:15 47° 99° (E) 04:00:21 435.225 FM
RS-15 24 Oct 03:56:17 04:04:54 25° 1° (N) 04:13:40 29.354 - 29.394 USB, Beacon 29.352 USB
TMSAT-1 24 Oct 04:01:59 04:07:05 45° 99° (E) 04:12:08 436.925 FM
Oscar 19 24 Oct 04:06:20 04:10:44 30° 294° (WNW) 04:15:08 437.125 CW, 437.150 USB
OPAL 24 Oct 04:08:08 04:11:14 16° 57° (ENE) 04:14:19 ?
JAS-1B 24 Oct 04:15:09 04:21:15 45° 292° (WNW) 04:28:25 435.800 - 435.900 CW/SSB
AO-27 24 Oct 04:21:17 04:26:21 51° 290° (WNW) 04:31:23 436.795 MHz FM
Oscar 16 24 Oct 04:53:41 04:55:52 13° 303° (WNW) 04:58:02 437.025 USB, Beacon 2401.1428
AO-Echo 24 Oct 04:54:26 04:58:26 22° 298° (WNW) 05:02:26 ?
Sapphire 24 Oct 04:54:57 05:00:19 72° 118° (ESE) 05:05:45 437.095 MHz 1200 baud AX-25 AFSK
Uosat F 24 Oct 04:59:42 05:03:41 23° 94° (E) 05:07:39 435.120 FM
JAS-2 24 Oct 05:07:54 05:11:30 14° 83° (E) 05:15:06 435.800 - 435.900 CW/SSB, 435.910 FM
Uribyol 2 24 Oct 05:10:28 05:14:10 20° 299° (WNW) 05:17:50 436.500 FM
ITAMSAT 1 24 Oct 05:16:21 05:19:57 19° 300° (WNW) 05:23:31 435.822 SSB
PCSat 24 Oct 05:17:36 05:23:00 72° 303° (WNW) 05:28:27 145.825 MHz
AO-7 24 Oct 05:18:47 05:26:47 48° 101° (E) 05:34:44 29.400 - 29.500 MHz
Gurwin Techsat 1B 24 Oct 05:30:39 05:34:56 25° 297° (WNW) 05:39:12 435.225 FM
TMSAT-1 24 Oct 05:42:24 05:46:45 26° 296° (WNW) 05:51:04 436.925 FM
OPAL 24 Oct 05:44:22 05:49:32 77° 254° (WSW) 05:54:39 ?
STRAND 1 24 Oct 05:51:16 05:54:11 15° 58° (ENE) 05:57:06 ?
RS-15 24 Oct 06:11:03 06:21:20 41° 35° (NE) 06:31:55 29.354 - 29.394 USB, Beacon 29.352 USB
Uosat F 24 Oct 06:37:51 06:42:40 45° 291° (WNW) 06:47:28 435.120 FM
Sapphire 24 Oct 06:40:06 06:44:18 22° 318° (NW) 06:48:32 437.095 MHz 1200 baud AX-25 AFSK
Hamsat 24 Oct 06:43:55 06:47:46 34° 97° (E) 06:51:37 145.90 MHz
JAS-2 24 Oct 06:49:59 06:57:44 69° 101° (ESE) 07:05:31 435.800 - 435.900 CW/SSB, 435.910 FM
PCSat 24 Oct 07:04:08 07:07:25 16° 324° (NW) 07:10:43 145.825 MHz
AO-7 24 Oct 07:11:48 07:19:28 43° 300° (WNW) 07:27:08 29.400 - 29.500 MHz
STRAND 1 24 Oct 07:27:35 07:32:43 80° 256° (WSW) 07:37:54 ?
Saudisat 1A 24 Oct 07:39:42 07:42:57 21° 112° (ESE) 07:46:14 436.775 MHz
Hamsat 24 Oct 08:20:17 08:23:32 22° 294° (WNW) 08:26:46 145.90 MHz
RS-15 24 Oct 08:23:37 08:34:45 77° 240° (WSW) 08:46:21 29.354 - 29.394 USB, Beacon 29.352 USB
SO-67 24 Oct 08:29:14 08:32:42 75° 102° (ESE) 08:36:08 435.3500 MHz FM
JAS-2 24 Oct 08:35:46 08:42:10 30° 300° (WNW) 08:48:41 435.800 - 435.900 CW/SSB, 435.910 FM
HO-68 24 Oct 08:48:47 08:52:09 14° 86° (E) 08:55:29 435.675 MHz FM
AO-7 24 Oct 09:07:57 09:10:04 11° 323° (NW) 09:12:12 29.400 - 29.500 MHz
Saudisat 1A 24 Oct 09:17:57 09:22:12 48° 310° (NW) 09:26:30 436.775 MHz
UKube-1 24 Oct 09:52:17 09:53:41 11° 89° (E) 09:55:05 145.840 MHz, 145.915 MHz
MaSat-1 24 Oct 10:13:58 10:16:32 47° 246° (WSW) 10:18:54 437.345 MHz
FUNcube-1 24 Oct 10:30:38 10:32:00 11° 88° (E) 10:33:21 145.950 - 145.970 MHz USB
Oscar 11 24 Oct 10:32:24 10:36:10 29° 96° (E) 10:39:55 145.825 FM, Beacon 2401.500 USB
HO-68 24 Oct 10:33:45 10:40:59 77° 105° (ESE) 10:48:10 435.675 MHz FM
RS-15 24 Oct 10:38:16 10:45:15 19° 261° (W) 10:52:25 29.354 - 29.394 USB, Beacon 29.352 USB
Saudisat 1A 24 Oct 11:01:42 11:02:51 11° 331° (NNW) 11:03:59 436.775 MHz
ZACube-1 24 Oct 11:19:51 11:23:53 39° 98° (E) 11:27:48 437.345 MHz
UKube-1 24 Oct 11:26:00 11:30:22 72° 286° (WNW) 11:34:42 145.840 MHz, 145.915 MHz
KITSAT 1 24 Oct 11:41:40 11:47:30 22° 103° (ESE) 11:53:19 435.175 FM
Sapphire 24 Oct 11:59:06 12:02:38 17° 37° (NE) 12:06:09 437.095 MHz 1200 baud AX-25 AFSK
FUNcube-1 24 Oct 12:04:37 12:08:53 66° 286° (WNW) 12:13:01 145.950 - 145.970 MHz USB
Oscar 11 24 Oct 12:08:38 12:12:17 27° 293° (WNW) 12:15:54 145.825 FM, Beacon 2401.500 USB
PCSat 24 Oct 12:21:18 12:25:41 24° 43° (NE) 12:30:03 145.825 MHz
HO-68 24 Oct 12:22:30 12:27:59 24° 305° (NW) 12:33:27 435.675 MHz FM
Oscar 10/S400 24 Oct 12:25:36 12:40:28 20° 149° (SSE) 12:52:54 145.825 - 145.975 CW/USB, Beacon 145.810 USB
Oscar 16 24 Oct 12:52:54 12:56:50 23° 63° (ENE) 13:00:46 437.025 USB, Beacon 2401.1428
AO-Echo 24 Oct 12:54:37 12:56:17 12° 56° (NE) 12:57:58 ?
